SCP
0 0 0 0 0 0 0 0 0 0 0 0 0 0 0 0 0 0 0 0 0 0 0 0 0 0 0 0 0 0 0 0 0 0 0 0 0 0 -0 -0 -0 0 0
0 0 0 0 0 0 0 0 0 0 0 0 0 0 0 0 0 0 0 0 0 0 0 0 0 0 0 0 0 0 0 0 0 0 0 0 0 0 0 0 0 -0 0
0 0 0 0 0 0 0 0 0 0 0 0 0 0 0 0 0 0 0 0 0 0 0 0 0 0 0 0 0 0 0 0 0 0 0 -0 0 0 0 0 0 0 0
0 0 0 0 0 0 0 0 0 0 0 0 0 0 0 0 0 0 0 0 0 0 0 0 0 0 0 0 0 0 0 0 0 0 0 0 -0 -0 -0 0 0 0 0
0 0 0 0 0 0 0 0 0 0 0 0 0 0 0 0 0 0 0 0 0 0 0 0 0 0 0 0 0 0 0 0 0 0 0 0 0 0 0 -0 -0 0 -0
0 0 0 0 0 0 0 0 0 0 0 0 0 0 0 0 0 0 0 0 0 0 0 0 0 0 0 0 0 0 0 0 0 0 0 0 0 0 0 0 0 0 0
0 0 0 0 0 0 0 0 0 0 0 0 0 0 0 0 -0 -0 0 0 0 0 0 0 0 0 0 0 0 0 0 0 0 0 0 0 0 0 0 0 0 0 0
0 0 0 0 0 0 0 0 0 0 0 0 0 0 -0 0 -0 0 0 0 0 0 0 0 0 0 0 0 0 0 0 0 0 0 0 0 0 0 0 0 0 0 0
0 0 0 0 0 0 0 0 0 0 0 0 0 0 0 0 -0 0 0 0 0 0 0 0 0 0 0 0 0 0 0 0 0 0 0 0 0 0 0 0 0 0 0
0 0 0 0 0 0 0 0 0 0 0 0 0 0 0 0 0 0 0 0 0 0 0 0 0 0 0 -0 0 0 0 0 0 0 0 0 0 0 0 0 0 0 0
0 0 0 0 0 0 0 0 0 0 0 0 0 0 0 0 0 0 0 0 0 0 0 0 0 0 0 -0 -0 0 0 0 0 0 0 0 0 0 0 0 0 0 0
0 0 0 0 0 0 0 0 0 0 0 0 0 0 0 0 0 0 -0 -0 0 0 0 0 0 0 0 0 0 0 0 0 0 0 0 0 0 0 0 0 0 0 0
0 0 0 0 0 0 0 0 0 0 0 0 0 0 0 0 0 0 -0 0 0 0 0 0 0 0 0 0 0 0 0 0 0 0 0 0 0 0 0 0 0 0 0
0 0 0 0 0 0 0 0 0 0 0 0 0 0 0 0 0 0 0 0 0 0 0 0 0 0 0 0 0 0 0 0 0 0 0 0 0 0 0 0 0 0 0
0 0 0 0 0 0 0 0 0 0 0 0 0 0 0 -0 -0 -0 -0 -0 0 0 0 0 0 0 0 0 0 0 0 0 0 0 0 0 0 0 0 0 0 0 0
0 0 0 0 0 0 0 0 0 0 0 0 0 0 0 -0 -0 -0 -0 0 0 0 0 0 0 0 0 0 0 0 0 0 0 0 0 0 0 0 0 0 0 0 0
0 0 0 0 0 0 0 0 0 0 0 0 0 0 -0 -0 -0 0 0 0 0 0 0 0 0 0 0 0 0 0 0 0 0 0 0 0 0 0 0 0 0 0 0
0 0 0 0 0 0 0 0 0 0 0 0 0 0 -0 0 0 0 0 0 0 0 0 0 0 0 0 0 0 0 0 0 0 0 0 0 0 0 0 0 0 0 0
0 0 0 0 0 0 0 0 0 0 0 0 0 0 0 0 0 0 0 0 0 0 0 0 0 0 0 0 0 0 0 0 0 0 0 0 0 0 0 0 0 0 0
0 0 0 0 0 0 0 0 0 0 0 0 0 0 0 0 0 0 0 0 0 0 0 0 0 0 0 0 0 0 0 0 0 0 0 0 0 0 0 -0 -0 -0 0
0 0 0 0 0 0 0 0 0 0 0 0 0 0 0 0 0 0 0 0 0 0 0 0 0 0 0 0 0 0 0 0 0 0 0 0 0 0 -0 0 0 0 0
0 0 0 0 0 0 0 0 0 0 0 0 0 0 0 0 0 0 0 0 0 0 0 0 0 0 0 0 0 0 0 0 0 0 0 0 0 0 0 0 0 0 0
0 0 0 0 0 0 0 0 0 0 0 0 0 0 0 0 0 0 0 0 0 0 0 0 0 0 0 0 0 0 0 0 0 0 0 0 -0 -0 -0 0 0 0 0
0 0 0 0 0 0 0 0 0 0 0 0 0 0 0 0 0 0 0 0 0 0 0 0 0 0 0 0 0 0 0 0 0 0 0 0 -0 -0 -0 0 0 -0 -0
0 0 0 0 0 0 0 0 0 0 0 0 0 0 0 0 0 0 0 0 0 0 0 0 0 0 0 0 0 0 0 -0 -0 0 0 0 -0 -0 -0 0 -0 -0 -0
0 0 0 0 0 0 0 0 0 0 0 0 0 0 0 0 0 0 0 0 0 0 0 0 0 0 0 0 0 0 0 0 -0 -0 -0 0 -0 -0 -0 -0 -0 0 -0
Wind_Speed_500mb
3 6 11 17 21 27 33 37 42 45 50 54 59 62 65 67 70 74 77 82 86 89 89 94 96 96 100 99 99 98 97 91 100 110 98 103 105 103 103 97 94 86 83
4 11 17 21 25 31 35 40 46 50 53 59 63 67 72 76 81 86 91 93 97 100 103 105 107 106 106 104 104 104 103 100 92 108 110 92 94 106 103 107 103 101 97
12 16 19 24 30 36 40 47 53 56 59 63 69 75 80 84 88 89 91 94 96 99 102 104 106 106 108 107 104 102 101 100 92 88 114 97 81 75 109 109 107 111 109
17 22 26 32 38 43 48 56 58 59 64 68 75 81 82 84 86 88 89 93 98 100 101 101 101 100 92 87 81 82 82 79 82 78 88 87 73 70 67 82 106 109 112
24 28 32 36 41 46 53 56 59 64 70 77 80 81 83 87 88 89 89 90 92 93 91 87 80 74 69 68 71 81 82 81 80 84 87 85 84 69 64 68 73 80 97
29 30 33 39 45 48 53 56 61 71 77 80 80 83 86 89 87 84 79 76 75 75 77 72 69 66 64 59 61 66 71 75 83 81 74 76 92 81 75 67 74 69 86
31 32 37 42 46 48 54 62 71 78 77 77 80 83 86 86 81 74 67 67 65 65 64 65 66 61 64 65 64 62 64 66 70 82 95 102 89 85 78 83 78 76 70
33 36 39 43 46 52 61 69 73 72 75 78 81 82 83 80 73 69 63 61 60 61 59 58 60 61 59 57 61 67 69 67 62 66 73 80 88 107 97 86 90 97 107
35 38 41 43 48 58 66 66 68 71 74 77 78 79 78 76 68 65 64 63 61 63 59 57 59 61 57 55 60 70 78 79 72 67 70 76 80 83 81 88 93 71 80
36 39 40 44 53 61 63 65 67 69 73 74 75 74 71 70 63 62 57 53 60 65 65 66 64 60 57 58 64 72 84 86 85 83 82 81 78 78 74 80 93 91 97
37 37 39 47 54 58 60 61 63 67 70 70 71 69 64 61 61 59 50 51 61 68 73 76 76 72 63 63 64 72 83 83 91 97 102 101 95 90 86 84 84 91 89
36 35 42 49 54 55 56 57 59 63 67 67 68 66 60 61 60 62 50 50 56 66 77 81 82 72 75 79 80 87 87 85 93 96 97 98 90 89 87 83 83 86 88
35 38 45 50 53 53 53 55 58 60 63 63 63 66 66 66 69 62 58 68 64 66 70 73 74 74 70 69 74 74 75 83 83 86 91 94 91 93 89 86 82 82 88
37 40 45 48 49 48 49 52 55 56 60 57 58 61 64 65 65 65 77 75 73 72 73 68 74 82 80 71 69 64 63 64 68 74 84 89 85 81 80 80 80 77 83
38 41 44 45 47 49 46 47 53 52 54 51 48 50 56 61 60 61 64 69 65 65 66 65 62 60 60 60 59 60 62 63 67 71 74 79 79 75 75 76 75 74 77
39 41 42 42 43 46 49 45 38 47 45 42 37 35 45 43 50 54 58 57 59 53 56 57 57 58 61 64 67 69 67 69 70 73 79 79 75 72 68 67 66 68 75
41 39 39 38 39 41 45 49 52 33 39 40 40 42 39 42 45 50 51 52 51 49 53 57 60 62 65 66 67 69 74 71 70 67 73 68 58 58 60 66 66 67 74
42 39 38 34 35 38 42 43 44 47 46 38 40 44 42 45 42 45 49 50 51 53 59 61 63 64 66 68 67 70 73 73 68 64 66 60 54 51 55 62 67 68 69
41 38 37 33 33 36 38 39 39 39 40 40 37 34 37 39 39 42 43 48 54 56 59 60 61 63 66 67 70 71 72 72 67 64 61 60 55 51 57 62 65 63 60
42 39 36 33 33 35 37 37 35 35 36 36 35 39 42 45 48 50 48 49 50 52 55 58 60 63 65 68 71 73 75 74 69 65 61 55 54 53 55 55 53 51 45
43 39 36 34 37 35 35 35 34 33 34 35 33 35 37 40 45 47 47 47 48 50 52 54 58 62 64 67 68 74 77 77 70 66 61 57 52 47 43 44 45 42 39
43 39 38 39 39 37 36 36 35 34 35 37 37 34 36 36 41 44 44 44 44 45 47 50 53 58 62 65 65 72 77 82 71 64 60 55 50 46 41 36 30 25 21
44 40 40 41 42 40 38 39 38 37 38 39 41 41 41 40 41 44 44 43 42 42 43 45 47 51 57 59 58 62 72 79 69 59 56 53 48 43 38 33 27 20 13
43 42 43 43 44 43 43 42 41 40 42 43 42 42 44 43 42 42 41 40 40 39 39 41 43 45 50 56 54 53 62 68 64 58 51 48 45 40 35 31 28 22 17
43 44 45 43 45 45 45 44 44 44 43 43 42 41 41 39 39 39 39 37 37 38 38 39 40 43 43 47 50 49 52 58 58 55 52 48 43 40 37 33 29 26 22
45 45 43 42 43 43 43 43 42 40 40 39 39 38 39 38 39 40 38 36 36 36 37 37 37 37 38 39 43 43 45 48 52 51 51 50 49 47 42 38 33 30 26
Wind_Direction_500mb
98 358 340 335 335 334 333 332 332 331 325 322 321 319 318 316 312 310 308 307 305 303 301 299 297 297 296 295 294 292 290 288 286 288 287 289 286 287 290 290 289 286 284
304 313 316 317 322 323 324 325 324 321 318 316 315 314 312 311 310 308 306 304 302 300 298 297 295 295 293 292 292 291 291 291 290 289 290 287 285 284 282 284 285 285 284
295 308 312 315 316 316 317 319 319 318 316 314 313 311 309 308 306 306 305 304 302 300 299 297 295 294 293 293 293 292 292 292 291 286 289 289 285 283 286 281 279 281 280
300 303 301 305 311 313 313 316 316 315 313 313 312 310 311 310 310 310 308 305 302 299 295 292 290 288 286 287 290 291 293 289 288 285 286 287 286 285 281 283 284 281 279
287 294 296 299 303 305 308 311 313 314 315 315 314 314 314 314 315 314 311 307 303 300 296 294 292 290 286 283 280 278 279 281 285 280 279 282 282 282 278 279 274 284 285
278 285 293 298 302 307 310 311 313 314 316 315 315 316 316 316 317 317 314 309 303 299 298 297 296 297 296 291 285 278 271 274 274 277 284 280 278 279 280 273 276 278 279
270 279 291 301 305 308 310 313 315 316 316 317 317 318 319 320 323 321 315 308 303 301 299 298 298 297 296 296 294 288 282 276 271 271 275 272 280 279 277 274 276 271 271
265 283 296 303 307 311 314 316 317 318 319 319 321 322 324 326 325 322 317 308 303 303 301 301 300 305 311 303 302 298 295 291 287 285 281 285 277 273 272 277 279 274 273
276 291 300 304 310 314 316 319 319 319 319 320 323 325 326 326 324 324 318 312 308 308 308 307 314 314 308 298 299 299 297 295 292 285 281 279 278 276 275 273 274 271 264
280 292 298 306 313 317 319 320 320 320 320 323 324 325 326 325 327 324 318 314 313 314 318 320 320 315 303 298 294 293 292 293 295 297 294 292 291 288 280 266 266 270 273
284 291 298 308 314 317 318 320 320 320 320 322 324 326 330 329 331 329 322 316 315 317 314 311 315 311 301 297 294 291 287 296 294 286 284 282 279 279 275 272 268 264 266
284 290 301 310 314 315 318 320 320 320 321 327 328 330 336 337 338 338 324 318 314 309 309 311 313 305 300 297 294 294 293 291 287 287 286 282 277 274 273 270 267 265 261
281 292 303 310 312 314 319 320 321 323 326 331 331 334 340 344 342 341 340 335 320 313 311 311 307 304 300 295 291 296 294 289 289 287 283 281 278 277 275 272 270 268 267
278 291 301 306 308 313 320 321 322 327 329 333 335 337 337 336 339 345 339 328 324 323 325 314 300 300 301 303 304 306 308 305 303 295 289 287 282 278 273 270 271 271 270
277 290 297 304 310 315 319 324 324 330 332 335 330 328 326 327 339 330 328 328 327 319 315 317 321 322 321 321 322 322 323 324 320 318 309 299 288 282 276 273 271 272 267
277 287 296 302 310 315 318 321 323 322 329 335 334 324 320 324 328 332 330 333 329 336 333 334 337 338 338 336 335 333 334 332 330 326 318 304 290 284 279 279 275 268 270
273 283 290 299 308 313 316 318 321 323 323 331 334 337 337 329 336 336 336 338 348 352 356 356 353 350 347 343 341 340 337 336 335 329 323 313 302 286 281 276 273 272 272
270 280 286 294 303 310 312 314 315 321 326 333 333 338 344 341 344 343 343 343 349 1 2 1 357 355 353 350 348 345 341 339 337 336 332 325 309 293 282 279 279 278 277
266 274 281 290 298 302 305 306 309 314 319 327 330 329 336 338 348 346 346 349 353 356 358 358 357 355 355 354 355 350 345 343 341 340 337 334 329 312 297 292 291 292 293
267 271 275 283 288 292 295 298 302 307 314 321 328 328 334 337 344 345 349 350 349 351 353 355 357 357 356 356 357 355 352 349 345 343 341 340 336 328 317 311 305 301 301
266 269 273 278 281 285 287 291 295 301 307 312 321 325 330 332 332 334 340 345 346 348 348 351 354 356 358 357 357 0 357 351 349 346 345 344 343 337 328 318 311 307 301
267 268 271 274 278 280 282 286 289 294 300 305 311 316 316 321 322 325 331 336 340 345 346 347 351 356 359 359 359 3 359 353 351 349 350 350 349 348 345 340 333 324 313
266 267 268 272 275 276 277 279 283 288 293 298 303 309 310 315 319 321 325 331 335 339 340 346 348 352 358 358 1 7 3 356 355 354 353 355 356 357 357 358 1 3 4
267 267 268 270 272 274 275 276 279 283 288 293 298 302 306 310 314 316 319 325 331 337 340 345 348 349 354 356 359 7 8 1 3 5 4 5 7 9 13 18 22 26 35
273 273 272 272 271 273 274 276 278 282 286 291 295 299 302 307 310 312 314 320 327 333 338 342 345 349 350 353 357 9 11 6 9 13 18 21 21 23 26 30 34 42 49
276 275 274 271 272 274 276 277 279 282 286 289 292 297 301 306 309 309 311 313 317 324 332 337 340 343 348 351 358 9 13 13 14 17 21 26 30 33 35 39 42 49 53
Wind_Speed_850mb
3 6 11 17 21 27 33 37 42 45 50 54 59 62 65 67 70 74 77 82 86 89 89 94 96 96 100 99 99 98 97 91 100 110 98 103 105 103 103 97 94 86 83
4 11 17 21 25 31 35 40 46 50 53 59 63 67 72 76 81 86 91 93 97 100 103 105 107 106 106 104 104 104 103 100 92 108 110 92 94 106 103 107 103 101 97
12 16 19 24 30 36 40 47 53 56 59 63 69 75 80 84 88 89 91 94 96 99 102 104 106 106 108 107 104 102 101 100 92 88 114 97 81 75 109 109 107 111 109
17 22 26 32 38 43 48 56 58 59 64 68 75 81 82 84 86 88 89 93 98 100 101 101 101 100 92 87 81 82 82 79 82 78 88 87 73 70 67 82 106 109 112
24 28 32 36 41 46 53 56 59 64 70 77 80 81 83 87 88 89 89 90 92 93 91 87 80 74 69 68 71 81 82 81 80 84 87 85 84 69 64 68 73 80 97
29 30 33 39 45 48 53 56 61 71 77 80 80 83 86 89 87 84 79 76 75 75 77 72 69 66 64 59 61 66 71 75 83 81 74 76 92 81 75 67 74 69 86
31 32 37 42 46 48 54 62 71 78 77 77 80 83 86 86 81 74 67 67 65 65 64 65 66 61 64 65 64 62 64 66 70 82 95 102 89 85 78 83 78 76 70
33 36 39 43 46 52 61 69 73 72 75 78 81 82 83 80 73 69 63 61 60 61 59 58 60 61 59 57 61 67 69 67 62 66 73 80 88 107 97 86 90 97 107
35 38 41 43 48 58 66 66 68 71 74 77 78 79 78 76 68 65 64 63 61 63 59 57 59 61 57 55 60 70 78 79 72 67 70 76 80 83 81 88 93 71 80
36 39 40 44 53 61 63 65 67 69 73 74 75 74 71 70 63 62 57 53 60 65 65 66 64 60 57 58 64 72 84 86 85 83 82 81 78 78 74 80 93 91 97
37 37 39 47 54 58 60 61 63 67 70 70 71 69 64 61 61 59 50 51 61 68 73 76 76 72 63 63 64 72 83 83 91 97 102 101 95 90 86 84 84 91 89
36 35 42 49 54 55 56 57 59 63 67 67 68 66 60 61 60 62 50 50 56 66 77 81 82 72 75 79 80 87 87 85 93 96 97 98 90 89 87 83 83 86 88
35 38 45 50 53 53 53 55 58 60 63 63 63 66 66 66 69 62 58 68 64 66 70 73 74 74 70 69 74 74 75 83 83 86 91 94 91 93 89 86 82 82 88
37 40 45 48 49 48 49 52 55 56 60 57 58 61 64 65 65 65 77 75 73 72 73 68 74 82 80 71 69 64 63 64 68 74 84 89 85 81 80 80 80 77 83
38 41 44 45 47 49 46 47 53 52 54 51 48 50 56 61 60 61 64 69 65 65 66 65 62 60 60 60 59 60 62 63 67 71 74 79 79 75 75 76 75 74 77
39 41 42 42 43 46 49 45 38 47 45 42 37 35 45 43 50 54 58 57 59 53 56 57 57 58 61 64 67 69 67 69 70 73 79 79 75 72 68 67 66 68 75
41 39 39 38 39 41 45 49 52 33 39 40 40 42 39 42 45 50 51 52 51 49 53 57 60 62 65 66 67 69 74 71 70 67 73 68 58 58 60 66 66 67 74
42 39 38 34 35 38 42 43 44 47 46 38 40 44 42 45 42 45 49 50 51 53 59 61 63 64 66 68 67 70 73 73 68 64 66 60 54 51 55 62 67 68 69
41 38 37 33 33 36 38 39 39 39 40 40 37 34 37 39 39 42 43 48 54 56 59 60 61 63 66 67 70 71 72 72 67 64 61 60 55 51 57 62 65 63 60
42 39 36 33 33 35 37 37 35 35 36 36 35 39 42 45 48 50 48 49 50 52 55 58 60 63 65 68 71 73 75 74 69 65 61 55 54 53 55 55 53 51 45
43 39 36 34 37 35 35 35 34 33 34 35 33 35 37 40 45 47 47 47 48 50 52 54 58 62 64 67 68 74 77 77 70 66 61 57 52 47 43 44 45 42 39
43 39 38 39 39 37 36 36 35 34 35 37 37 34 36 36 41 44 44 44 44 45 47 50 53 58 62 65 65 72 77 82 71 64 60 55 50 46 41 36 30 25 21
44 40 40 41 42 40 38 39 38 37 38 39 41 41 41 40 41 44 44 43 42 42 43 45 47 51 57 59 58 62 72 79 69 59 56 53 48 43 38 33 27 20 13
43 42 43 43 44 43 43 42 41 40 42 43 42 42 44 43 42 42 41 40 40 39 39 41 43 45 50 56 54 53 62 68 64 58 51 48 45 40 35 31 28 22 17
43 44 45 43 45 45 45 44 44 44 43 43 42 41 41 39 39 39 39 37 37 38 38 39 40 43 43 47 50 49 52 58 58 55 52 48 43 40 37 33 29 26 22
45 45 43 42 43 43 43 43 42 40 40 39 39 38 39 38 39 40 38 36 36 36 37 37 37 37 38 39 43 43 45 48 52 51 51 50 49 47 42 38 33 30 26
Wind_Direction_850mb
98 358 340 335 335 334 333 332 332 331 325 322 321 319 318 316 312 310 308 307 305 303 301 299 297 297 296 295 294 292 290 288 286 288 287 289 286 287 290 290 289 286 284
304 313 316 317 322 323 324 325 324 321 318 316 315 314 312 311 310 308 306 304 302 300 298 297 295 295 293 292 292 291 291 291 290 289 290 287 285 284 282 284 285 285 284
295 308 312 315 316 316 317 319 319 318 316 314 313 311 309 308 306 306 305 304 302 300 299 297 295 294 293 293 293 292 292 292 291 286 289 289 285 283 286 281 279 281 280
300 303 301 305 311 313 313 316 316 315 313 313 312 310 311 310 310 310 308 305 302 299 295 292 290 288 286 287 290 291 293 289 288 285 286 287 286 285 281 283 284 281 279
287 294 296 299 303 305 308 311 313 314 315 315 314 314 314 314 315 314 311 307 303 300 296 294 292 290 286 283 280 278 279 281 285 280 279 282 282 282 278 279 274 284 285
278 285 293 298 302 307 310 311 313 314 316 315 315 316 316 316 317 317 314 309 303 299 298 297 296 297 296 291 285 278 271 274 274 277 284 280 278 279 280 273 276 278 279
270 279 291 301 305 308 310 313 315 316 316 317 317 318 319 320 323 321 315 308 303 301 299 298 298 297 296 296 294 288 282 276 271 271 275 272 280 279 277 274 276 271 271
265 283 296 303 307 311 314 316 317 318 319 319 321 322 324 326 325 322 317 308 303 303 301 301 300 305 311 303 302 298 295 291 287 285 281 285 277 273 272 277 279 274 273
276 291 300 304 310 314 316 319 319 319 319 320 323 325 326 326 324 324 318 312 308 308 308 307 314 314 308 298 299 299 297 295 292 285 281 279 278 276 275 273 274 271 264
280 292 298 306 313 317 319 320 320 320 320 323 324 325 326 325 327 324 318 314 313 314 318 320 320 315 303 298 294 293 292 293 295 297 294 292 291 288 280 266 266 270 273
284 291 298 308 314 317 318 320 320 320 320 322 324 326 330 329 331 329 322 316 315 317 314 311 315 311 301 297 294 291 287 296 294 286 284 282 279 279 275 272 268 264 266
284 290 301 310 314 315 318 320 320 320 321 327 328 330 336 337 338 338 324 318 314 309 309 311 313 305 300 297 294 294 293 291 287 287 286 282 277 274 273 270 267 265 261
281 292 303 310 312 314 319 320 321 323 326 331 331 334 340 344 342 341 340 335 320 313 311 311 307 304 300 295 291 296 294 289 289 287 283 281 278 277 275 272 270 268 267
278 291 301 306 308 313 320 321 322 327 329 333 335 337 337 336 339 345 339 328 324 323 325 314 300 300 301 303 304 306 308 305 303 295 289 287 282 278 273 270 271 271 270
277 290 297 304 310 315 319 324 324 330 332 335 330 328 326 327 339 330 328 328 327 319 315 317 321 322 321 321 322 322 323 324 320 318 309 299 288 282 276 273 271 272 267
277 287 296 302 310 315 318 321 323 322 329 335 334 324 320 324 328 332 330 333 329 336 333 334 337 338 338 336 335 333 334 332 330 326 318 304 290 284 279 279 275 268 270
273 283 290 299 308 313 316 318 321 323 323 331 334 337 337 329 336 336 336 338 348 352 356 356 353 350 347 343 341 340 337 336 335 329 323 313 302 286 281 276 273 272 272
270 280 286 294 303 310 312 314 315 321 326 333 333 338 344 341 344 343 343 343 349 1 2 1 357 355 353 350 348 345 341 339 337 336 332 325 309 293 282 279 279 278 277
266 274 281 290 298 302 305 306 309 314 319 327 330 329 336 338 348 346 346 349 353 356 358 358 357 355 355 354 355 350 345 343 341 340 337 334 329 312 297 292 291 292 293
267 271 275 283 288 292 295 298 302 307 314 321 328 328 334 337 344 345 349 350 349 351 353 355 357 357 356 356 357 355 352 349 345 343 341 340 336 328 317 311 305 301 301
266 269 273 278 281 285 287 291 295 301 307 312 321 325 330 332 332 334 340 345 346 348 348 351 354 356 358 357 357 0 357 351 349 346 345 344 343 337 328 318 311 307 301
267 268 271 274 278 280 282 286 289 294 300 305 311 316 316 321 322 325 331 336 340 345 346 347 351 356 359 359 359 3 359 353 351 349 350 350 349 348 345 340 333 324 313
266 267 268 272 275 276 277 279 283 288 293 298 303 309 310 315 319 321 325 331 335 339 340 346 348 352 358 358 1 7 3 356 355 354 353 355 356 357 357 358 1 3 4
267 267 268 270 272 274 275 276 279 283 288 293 298 302 306 310 314 316 319 325 331 337 340 345 348 349 354 356 359 7 8 1 3 5 4 5 7 9 13 18 22 26 35
273 273 272 272 271 273 274 276 278 282 286 291 295 299 302 307 310 312 314 320 327 333 338 342 345 349 350 353 357 9 11 6 9 13 18 21 21 23 26 30 34 42 49
276 275 274 271 272 274 276 277 279 282 286 289 292 297 301 306 309 309 311 313 317 324 332 337 340 343 348 351 358 9 13 13 14 17 21 26 30 33 35 39 42 49 53